{"data":{"norad_id":64313,"epoch":"2026-09-20T21:27:49.312800Z","epoch_age_seconds":103474,"freshness":"FRESH","line1":"1 64313U 25123Y   26263.89432075  .00013091  00000+0  45892-3 0  9991","line2":"2 64313  70.0004  60.0724 0003521 272.6978  87.3794 15.29587458 70910","mean_motion":15.29587458,"eccentricity":0.0003521,"inclination_deg":70.0004,"raan_deg":60.0724,"arg_perigee_deg":272.6978,"mean_anomaly_deg":87.3794,"bstar":0.00045892,"rev_number":7091,"period_min":94.143031342769,"perigee_km":474.63091029558,"apogee_km":479.45832919221,"semimajor_km":6855.1816197439,"source":"CELESTRAK","updated_at":"2026-09-21T09:00:35.309672Z"}}